Location: Newark
(48.4317°S, 179.1125°W)
Time: 21:01:59
(UTC+00:00)

Envisat - Visible Passes

Search period start: 29 January 2020 00:00
Search period end: 08 February 2020 00:00
Orbit: 764 x 766 km, 98.1° (Epoch: 29 January)

Date Brightness Start Highest point End Pass type
(mag) Time Alt. Az. Time Alt. Az. Time Alt. Az.
29 Jan 6.5 15:56:13 10° E 15:59:00 15° SE 16:01:47 10° SSE visible
30 Jan 6.8 08:58:31 10° SW 08:59:17 10° SW 09:00:02 10° WSW visible
31 Jan 6.1 08:19:30 10° SSW 08:23:04 19° WSW 08:26:38 10° WNW visible
01 Feb 6.7 15:45:52 10° ESE 15:47:53 12° SE 15:49:54 10° SSE visible
02 Feb 6.5 08:46:03 10° SSW 08:48:11 13° SW 08:50:17 10° WSW visible
03 Feb 6.0 08:07:56 10° S 08:11:55 23° WSW 08:15:52 10° WNW visible
03 Feb 6.2 16:09:28 10° ENE 16:12:59 19° ESE 16:16:31 10° SSE visible
04 Feb 6.9 15:36:22 10° SE 15:36:46 10° SE 15:37:11 10° SE visible
05 Feb 6.3 08:34:12 10° SSW 08:37:03 15° SW 08:39:54 10° W visible
06 Feb 6.4 15:58:49 10° E 16:01:50 16° SE 16:04:51 10° SSE visible
